User: anonymous   Login
Location: Hopkins Observatory
(42.6965°N, 73.1843°W)
Time: 20:08:10
(UTC-04:00)
Language:

RS-15 - Orbit

View from above orbital plane
View from above orbital plane
View from above satellite
View from above satellite

Ground track
Ground track

The orbit data is extracted from the following two-line orbital elements,

1 23439U 94085A   17177.24140340 -.00000034 +00000-0 +23655-3 0  9990
2 23439 064.8132 204.5238 0167032 244.2614 200.6687 11.27566984926435
Epoch (UTC): 26 June 2017 05:47:37
Eccentricity: 0.0167032
inclination: 64.8132°
perigee height: 1882 km
apogee height: 2163 km
right ascension of ascending node: 204.5238°
argument of perigee: 244.2614°
revolutions per day: 11.27566984
mean anomaly at epoch: 200.6687°
orbit number at epoch: 92643

The dashed part of the orbit path shows where the satellite is in the earth's shadow,  

DLR